Total_Precipitation_Accumulation
1.33 1.30 1.31 1.20 1.16 1.20 1.27 1.47 1.79 1.58 1.02 0.78 0.76 0.80 0.87 0.95 1.07 1.03 0.94 1.03 1.12 1.23 1.37 1.45 1.53 1.78 2.21 2.86 3.79 4.81 5.05 4.35 3.50 3.00 2.98 3.47 3.98 4.47
1.41 1.42 1.40 1.37 1.36 1.31 1.33 1.40 1.57 1.72 1.35 0.76 0.69 0.76 0.91 1.01 1.16 1.16 1.15 1.25 1.21 1.27 1.36 1.43 1.46 1.59 1.83 2.20 2.80 3.72 4.67 4.85 4.26 3.64 3.36 3.46 3.82 4.19
1.46 1.52 1.47 1.44 1.52 1.47 1.40 1.39 1.43 1.57 1.57 0.93 0.71 0.75 0.99 1.18 1.23 1.26 1.32 1.27 1.22 1.31 1.36 1.42 1.45 1.52 1.70 1.93 2.28 2.86 3.75 4.54 4.71 4.35 3.99 3.76 3.76 3.88
1.45 1.48 1.49 1.48 1.53 1.53 1.54 1.47 1.39 1.36 1.46 1.22 0.88 0.87 1.04 1.24 1.29 1.34 1.42 1.39 1.32 1.42 1.45 1.51 1.58 1.64 1.76 1.88 2.07 2.35 2.97 3.67 4.33 4.53 4.30 3.94 3.78 3.89
1.70 1.67 1.59 1.59 1.61 1.56 1.58 1.54 1.45 1.37 1.35 1.36 1.09 0.96 1.05 1.19 1.32 1.40 1.44 1.45 1.46 1.55 1.51 1.52 1.64 1.74 1.81 1.87 1.96 2.14 2.39 2.76 3.35 4.06 4.31 4.13 3.87 3.83
1.82 1.83 1.79 1.77 1.72 1.68 1.70 1.66 1.64 1.67 1.61 1.59 1.39 1.18 1.14 1.17 1.36 1.56 1.66 1.52 1.50 1.49 1.54 1.53 1.64 1.73 1.79 1.77 1.72 1.82 2.05 2.40 2.95 3.56 4.08 4.21 3.90 3.74
1.70 1.70 1.77 1.95 2.01 2.06 2.08 1.98 1.98 2.10 2.06 1.96 1.72 1.48 1.33 1.36 1.48 1.56 1.78 1.74 1.64 1.56 1.59 1.52 1.53 1.51 1.56 1.66 1.73 1.81 1.98 2.13 2.47 3.01 3.55 3.95 3.96 3.82
1.62 1.54 1.53 1.75 1.86 2.01 2.16 2.15 2.22 2.40 2.46 2.35 2.04 1.75 1.45 1.37 1.48 1.72 1.95 2.14 2.06 1.64 1.66 1.71 1.67 1.71 1.61 1.60 1.77 1.83 1.95 2.09 2.24 2.57 2.99 3.40 3.65 3.79
1.45 1.45 1.43 1.46 1.61 1.54 1.74 1.87 1.90 2.09 2.33 2.41 2.36 1.88 1.59 1.46 1.76 1.98 2.03 2.17 2.05 1.77 1.88 2.12 1.93 1.89 1.77 1.77 1.82 1.70 1.79 1.92 2.02 2.23 2.56 2.94 3.30 3.55
1.25 1.23 1.24 1.28 1.41 1.59 1.68 1.68 1.58 1.65 1.93 2.12 2.28 2.08 1.86 1.83 2.12 2.43 2.55 2.57 2.32 2.07 2.04 2.43 2.21 2.08 2.00 1.90 1.83 1.64 1.66 1.77 1.87 2.00 2.19 2.51 2.86 3.09
1.14 1.14 1.11 1.09 1.43 1.72 1.67 1.60 1.46 1.43 1.61 1.91 2.14 2.24 2.33 2.47 2.65 2.96 3.16 3.13 2.90 2.44 2.18 2.39 2.42 2.34 2.21 2.09 1.91 1.73 1.61 1.65 1.71 1.81 1.89 2.07 2.35 2.70
1.13 1.09 1.22 1.27 1.53 1.64 1.55 1.62 1.66 1.48 1.39 1.47 1.57 1.70 1.79 1.96 2.37 2.66 2.95 3.13 3.04 2.91 2.37 2.35 2.48 2.56 2.85 2.39 1.94 1.62 1.49 1.55 1.59 1.66 1.71 1.77 1.99 2.15
1.27 1.19 1.15 1.35 1.43 1.51 1.57 1.57 1.74 1.61 1.49 1.57 1.57 1.52 1.55 1.69 1.89 2.20 2.60 2.97 3.17 3.00 2.42 2.54 2.74 2.49 2.71 2.57 2.13 1.74 1.44 1.41 1.43 1.50 1.59 1.64 1.77 1.89
1.28 1.13 1.13 1.33 1.38 1.47 1.49 1.60 1.72 1.66 1.55 1.57 1.50 1.46 1.50 1.59 1.71 1.92 2.20 2.48 2.66 2.69 2.40 2.47 2.93 2.64 2.55 2.36 2.18 1.96 1.60 1.37 1.28 1.30 1.37 1.64 1.79 1.86
1.43 1.45 1.36 1.41 1.40 1.33 1.40 1.47 1.48 1.44 1.53 1.56 1.44 1.34 1.34 1.44 1.52 1.67 1.86 2.10 2.31 2.43 2.41 2.33 2.54 2.58 2.58 2.47 2.06 1.80 1.74 1.61 1.32 1.29 1.38 1.44 1.52 1.67
1.54 1.54 1.50 1.45 1.36 1.31 1.32 1.27 1.24 1.33 1.43 1.43 1.32 1.21 1.20 1.32 1.47 1.59 1.78 1.97 2.26 2.37 2.36 2.36 2.39 2.60 2.64 2.21 1.96 1.74 1.55 1.75 1.53 1.33 1.40 1.48 1.47 1.46
1.66 1.56 1.43 1.40 1.41 1.33 1.24 1.19 1.19 1.26 1.33 1.25 1.24 1.23 1.23 1.31 1.40 1.51 1.75 1.92 2.14 2.15 2.26 2.42 2.47 2.48 2.54 2.46 2.29 1.80 1.48 1.45 1.43 1.37 1.45 1.61 1.66 1.57
1.72 1.57 1.34 1.26 1.26 1.23 1.21 1.19 1.15 1.17 1.18 1.18 1.24 1.27 1.30 1.35 1.40 1.45 1.67 1.88 1.98 1.95 2.04 2.23 2.41 2.52 2.67 2.78 2.51 1.99 1.60 1.49 1.44 1.37 1.41 1.64 1.85 1.73
1.48 1.34 1.23 1.17 1.12 1.09 1.13 1.12 1.10 1.09 1.13 1.19 1.21 1.20 1.23 1.28 1.34 1.42 1.55 1.69 1.77 1.82 1.90 2.01 2.25 2.49 2.62 2.72 2.75 2.28 1.91 1.68 1.58 1.59 1.54 1.58 1.78 1.78
1.26 1.23 1.22 1.18 1.13 1.12 1.14 1.14 1.10 1.10 1.17 1.22 1.22 1.18 1.19 1.28 1.33 1.35 1.41 1.56 1.67 1.72 1.81 1.89 2.09 2.37 2.56 2.50 2.62 2.56 2.27 1.93 1.78 1.81 1.70 1.62 1.68 1.78
1.22 1.18 1.19 1.24 1.23 1.20 1.17 1.17 1.19 1.19 1.18 1.24 1.23 1.19 1.19 1.27 1.31 1.28 1.34 1.49 1.59 1.64 1.73 1.77 1.87 2.08 2.23 2.27 2.32 2.30 2.35 2.30 2.00 1.85 1.77 1.84 1.90 1.88
1.19 1.18 1.17 1.21 1.26 1.25 1.23 1.23 1.24 1.24 1.26 1.28 1.23 1.18 1.20 1.26 1.31 1.29 1.32 1.37 1.41 1.47 1.57 1.62 1.70 1.94 2.19 2.35 2.27 2.09 2.17 2.31 2.32 2.07 1.89 1.96 2.25 2.50
1.24 1.24 1.20 1.19 1.21 1.21 1.21 1.21 1.24 1.23 1.23 1.25 1.19 1.11 1.13 1.22 1.24 1.26 1.25 1.22 1.25 1.33 1.45 1.58 1.70 1.88 2.07 2.16 2.19 2.02 1.94 2.05 2.16 2.20 2.26 2.06 1.81 1.75